This is the latest recevied weather packets stored in our database for station/object VK3CG. If no packets are shown the sender has not sent any weather packets the latest 10 day(s).
| Time | Temp. | Humidity | Pressure | Rain* | Wind** | Luminosity | Snow |
|---|---|---|---|---|---|---|---|
| 1777596350 | 20° C | 44% | 1036 hPa | 0 mm | - | 524 W/m² | - |
| 1777595438 | 19.44° C | 44% | 1036 hPa | 0 mm | - | 506 W/m² | - |
| 1777594533 | 18.33° C | 44% | 1036.1 hPa | 0 mm | - | 480 W/m² | - |
| 1777593635 | 17.78° C | 45% | 1036.3 hPa | 0 mm | - | 394 W/m² | - |
| 1777592786 | 17.78° C | 47% | 1036.4 hPa | 0 mm | - | 339 W/m² | - |
| 1777591831 | 17.22° C | 48% | 1036.4 hPa | 0 mm | - | 77 W/m² | - |
| 1777590921 | 16.67° C | 49% | 1036.4 hPa | 0 mm | - | 83 W/m² | - |
| 1777590018 | 16.11° C | 50% | 1036.6 hPa | 0 mm | - | 104 W/m² | - |
| 1777589117 | 15.56° C | 52% | 1036.6 hPa | 0 mm | - | 93 W/m² | - |
| 1777588219 | 15° C | 53% | 1036.5 hPa | 0 mm | - | 90 W/m² | - |
| 1777587312 | 14.44° C | 53% | 1036.2 hPa | 0 mm | - | 67 W/m² | - |
| 1777586408 | 14.44° C | 53% | 1036.1 hPa | 0 mm | - | 54 W/m² | - |
| 1777585506 | 14.44° C | 53% | 1036 hPa | 0 mm | - | 39 W/m² | - |
| 1777584603 | 14.44° C | 54% | 1035.6 hPa | 0 mm | - | 28 W/m² | - |
| 1777583744 | 14.44° C | 54% | 1035.4 hPa | 0 mm | - | 12 W/m² | - |
| 1777582847 | 13.89° C | 54% | 1035.4 hPa | 0 mm | - | 0 W/m² | - |
| 1777581944 | 14.44° C | 54% | 1035.2 hPa | 0 mm | - | 0 W/m² | - |
| 1777581046 | 13.89° C | 54% | 1035.3 hPa | 0 mm | - | 0 W/m² | - |
| 1777580141 | 14.44° C | 54% | 1035.4 hPa | 0 mm | - | 0 W/m² | - |
| 1777579240 | 13.89° C | 54% | 1035.4 hPa | 0 mm | - | 0 W/m² | - |
| 1777578339 | 13.89° C | 54% | 1035.5 hPa | 0 mm | - | 0 W/m² | - |
| 1777577443 | 13.89° C | 55% | 1035.4 hPa | 0 mm | - | 0 W/m² | - |
| 1777576539 | 13.89° C | 55% | 1035.4 hPa | 0 mm | - | 0 W/m² | - |
| 1777575638 | 13.89° C | 55% | 1035.4 hPa | 0 mm | - | 0 W/m² | - |
| 1777574736 | 13.89° C | 55% | 1035.2 hPa | 0 mm | - | 0 W/m² | - |
* Rain latest hour (hover to see other rain measurements)
** Current wind speed in m/s (hover to see current wind gust speed)